491P/Spacewatch-PanSTARRS (2013)

Japanese version
Home page
Updated on September 26, 2024

---------------------------------------------------------------------

* Profile

Designation 491P/2014 MG4
Discovery Date June 20 and July 25, 2014
Magnitude 19.4 mag
Discoverer Spacewatch (Kitt Peak), Pan-STARRS 1 telescope (Haleakala)

* Pictures

* Orbital Elements

                    Epoch = 2013 May  28.0 TT
     T = 2013 June 13.49971 TT        Peri. = 298.85315
     e = 0.2588508                    Node  = 311.86109 2000.0
     q = 3.7142377 AU                 Incl. =   9.36735
       a =  5.0114578 AU   n = 0.08785328   P =  11.22 years

* Magnitudes Graph

        m1 = 4.0 + 5 log d + 20.0 log r(t - 500)

---------------------------------------------------------------------

The orbital elements are printed on CBET 5431.
The magnitudes graphs are made with Comet for Windows.

---------------------------------------------------------------------

Copyright(C) Seiichi Yoshida (comet@aerith.net). All rights reserved.